Weather History for KP59 - March, 2014

Change the Weather History Date:

Monday, March 31, 2014

  Actual Average Record
Temperature  
Mean Temperature 39 °F -  
Max Temperature 44 °F 36 °F 59 °F (1999)
Min Temperature 34 °F 25 °F 6 °F (1997)
Degree Days  
Heating Degree Days 26    
Moisture  
Dew Point 28 °F    
Average Humidity 67    
Maximum Humidity 79    
Minimum Humidity 53    
Precipitation  
Precipitation 0.10 in - - ()
Sea Level Pressure  
Sea Level Pressure 29.91 in    
Wind  
Wind Speed 7 mph (South)    
Max Wind Speed 20 mph    
Max Gust Speed 38 mph    
Averages and records for this station are not official NWS values.
T = Trace of Precipitation, MM = Missing Value Source: NWS Daily Summary

Daily Weather History Graph

Daily Weather History Graph

Search for Another Location

Airport or City:

Trip Planner

Search our weather history database for the weather conditions in past years. The results will help you decide how hot, cold, wet, or windy it might be!

Date:

Astronomy

Mar. 31, 2014 Rise Set
Actual Time 7:32 AM EDT 8:19 PM EDT
Civil Twilight 7:01 AM EDT 8:50 PM EDT
Nautical Twilight 6:24 AM EDT 9:28 PM EDT
Astronomical Twilight 5:45 AM EDT 10:07 PM EDT
Moon 7:51 AM EDT (3/31) 9:44 PM EDT (3/31)
Length of Visible Light 13h 49m
Length of Day
12h 47m
New Moon, 1% of the Moon is Illuminated
Mar 31
New Moon
Apr 7
First Quarter
Apr 15
Full
Apr 22
Last Quarter
Apr 29
New

Hourly Weather History & Observations

Time (EDT) Temp. Windchill Dew Point Humidity Pressure Visibility Wind Dir Wind Speed Gust Speed Precip Events Conditions
12:51 AM 39.0 °F - 28.0 °F 65% 30.02 in - Calm Calm - N/A   Unknown
1:51 AM 39.0 °F 36.8 °F 28.0 °F 65% 30.02 in - Variable 3.5 mph - N/A   Unknown
2:51 AM 37.0 °F - 28.0 °F 70% 30.01 in - Calm Calm - N/A   Unknown
3:51 AM 36.0 °F 29.6 °F 28.0 °F 73% 30.01 in - SW 8.1 mph - N/A   Unknown
4:51 AM 37.0 °F - 28.9 °F 73% 30.03 in - Calm Calm - N/A   Unknown
5:51 AM 36.0 °F - 28.9 °F 76% 30.02 in - Calm Calm - N/A   Unknown
6:51 AM 34.0 °F 26.0 °F 28.0 °F 79% 30.04 in - South 10.4 mph 16.1 mph N/A   Unknown
7:51 AM 34.0 °F 27.2 °F 27.0 °F 75% 30.04 in - South 8.1 mph - N/A   Unknown
8:51 AM 36.0 °F 29.0 °F 28.0 °F 73% 30.03 in - South 9.2 mph - 0.01 in   Unknown
9:51 AM 35.1 °F 28.6 °F 26.1 °F 70% 30.04 in - SSE 8.1 mph - N/A   Unknown
10:51 AM 35.1 °F 29.3 °F 24.1 °F 64% 30.01 in - Variable 6.9 mph - N/A   Unknown
11:51 AM 35.1 °F 27.4 °F 24.1 °F 64% 30.00 in - South 10.4 mph - N/A   Unknown
12:51 PM 36.0 °F 28.5 °F 25.0 °F 64% 29.98 in - SSE 10.4 mph 19.6 mph N/A   Unknown
1:51 PM 35.1 °F 25.9 °F 26.1 °F 70% 29.95 in - SE 13.8 mph 19.6 mph N/A   Unknown
2:51 PM 39.9 °F 33.9 °F 26.1 °F 58% 29.91 in - SSE 9.2 mph - N/A   Unknown
3:51 PM 39.0 °F 32.8 °F 26.1 °F 60% 29.89 in - SSE 9.2 mph 16.1 mph N/A   Unknown
4:51 PM 39.9 °F 32.1 °F 27.0 °F 60% 29.84 in - South 13.8 mph 21.9 mph N/A   Unknown
5:51 PM 41.0 °F 33.9 °F 28.0 °F 60% 29.82 in - South 12.7 mph 25.3 mph N/A   Unknown
6:51 PM 42.1 °F 35.2 °F 28.9 °F 60% 29.74 in - SSE 12.7 mph 26.5 mph N/A   Unknown
7:51 PM 44.1 °F 36.8 °F 28.0 °F 53% 29.73 in - South 16.1 mph 25.3 mph N/A   Unknown
8:51 PM 43.0 °F 34.5 °F 28.9 °F 58% 29.66 in - South 19.6 mph 31.1 mph N/A   Unknown
9:51 PM 41.0 °F 32.5 °F 32.0 °F 70% 29.70 in - South 17.3 mph 38.0 mph 0.02 in   Unknown
10:51 PM 37.9 °F 28.9 °F 32.0 °F 79% 29.70 in - South 16.1 mph 27.6 mph 0.05 in   Unknown
11:51 PM 39.0 °F 31.4 °F 30.9 °F 73% 29.68 in - South 12.7 mph 20.7 mph 0.02 in   Unknown